User: anonymous   Login
Location: Wien
(48.2082°N, 16.3738°E)
Time: 04:16:41
(UTC+02:00)
Language:

EO-79 - Orbit

View from above orbital plane
View from above orbital plane
View from above satellite
View from above satellite

Ground track
Ground track

The orbit data is extracted from the following two-line orbital elements,

1 40025U 14033R   19109.75437795  .00000208  00000-0  28166-4 0  9996
2 40025  97.9066  29.5349 0010983 255.6504 104.3493 14.88906088262400
Epoch (UTC): 19 April 2019 18:06:18
Eccentricity: 0.0010983
inclination: 97.9066°
perigee height: 593 km
apogee height: 609 km
right ascension of ascending node: 29.5349°
argument of perigee: 255.6504°
revolutions per day: 14.88906088
mean anomaly at epoch: 104.3493°
orbit number at epoch: 26240

The dashed part of the orbit path shows where the satellite is in the earth's shadow,  

DLR